Change the Weather History Date:

Thursday, November 8, 2012

  Actual Average Record
Temperature  
Mean Temperature 42 °F -  
Max Temperature 46 °F 51 °F 74 °F (1975)
Min Temperature 35 °F 30 °F 17 °F (1960)
Degree Days  
Heating Degree Days 24    
Moisture  
Dew Point 19 °F    
Average Humidity 44    
Maximum Humidity 61    
Minimum Humidity 34    
Precipitation  
Precipitation 0.00 in - - ()
Sea Level Pressure  
Sea Level Pressure 29.84 in    
Wind  
Wind Speed 9 mph (NNW)    
Max Wind Speed 16 mph    
Max Gust Speed 30 mph    
Visibility 10 miles    
Events      
Averages and records for this station are not official NWS values.
T = Trace of Precipitation, MM = Missing Value Source: NWS Daily Summary

Daily Weather History Graph

Daily Weather History Graph

Search for Another Location

Airport or City:

Trip Planner

Search our weather history database for the weather conditions in past years. The results will help you decide how hot, cold, wet, or windy it might be!

Date:

Astronomy

Nov. 08, 2012 Rise Set
Actual Time 6:38 AM EST 4:45 PM EST
Civil Twilight 6:09 AM EST 5:14 PM EST
Nautical Twilight 5:36 AM EST 5:47 PM EST
Astronomical Twilight 5:04 AM EST 6:19 PM EST
Moon 12:27 AM EST (11/8) 1:28 PM EST (11/8)
Length of Visible Light 11h 05m
Length of Day
10h 06m
Waning Crescent, 33% of the Moon is Illuminated
Nov 8
Waning Crescent
Nov 13
New
Nov 20
First Quarter
Nov 28
Full
Dec 6
Last Quarter

Hourly Weather History & Observations

Time (EST) Temp. Windchill Dew Point Humidity Pressure Visibility Wind Dir Wind Speed Gust Speed Precip Events Conditions
12:53 AM 37.0 °F 29.3 °F 23.0 °F 57% 29.82 in 10.0 mi North 11.5 mph 17.3 mph N/A   Overcast
1:53 AM 37.9 °F 33.5 °F 19.9 °F 48% 29.81 in 10.0 mi Variable 5.8 mph - N/A   Overcast
2:53 AM 37.9 °F 33.5 °F 18.0 °F 45% 29.80 in 10.0 mi North 5.8 mph - N/A   Overcast
3:53 AM 37.9 °F 32.7 °F 19.0 °F 47% 29.79 in 10.0 mi North 6.9 mph - N/A   Overcast
4:53 AM 37.9 °F 32.7 °F 18.0 °F 45% 29.79 in 10.0 mi Variable 6.9 mph - N/A   Overcast
5:53 AM 37.9 °F 32.7 °F 17.1 °F 43% 29.79 in 10.0 mi NW 6.9 mph - N/A   Overcast
6:53 AM 37.0 °F 32.4 °F 19.0 °F 48% 29.81 in 10.0 mi Variable 5.8 mph - N/A   Mostly Cloudy
7:53 AM 37.0 °F 31.6 °F 19.0 °F 48% 29.82 in 10.0 mi Variable 6.9 mph 17.3 mph N/A   Partly Cloudy
8:53 AM 37.9 °F 31.5 °F 19.0 °F 47% 29.83 in 10.0 mi NNW 9.2 mph 17.3 mph N/A   Clear
9:53 AM 39.9 °F 33.9 °F 18.0 °F 41% 29.83 in 10.0 mi North 9.2 mph - N/A   Partly Cloudy
10:53 AM 43.0 °F 38.8 °F 18.0 °F 37% 29.82 in 10.0 mi Variable 6.9 mph - N/A   Clear
11:53 AM 44.1 °F 39.5 °F 18.0 °F 35% 29.80 in 10.0 mi North 8.1 mph - N/A   Clear
12:53 PM 46.0 °F 41.4 °F 19.0 °F 34% 29.79 in 10.0 mi NNW 9.2 mph 19.6 mph N/A   Clear
1:53 PM 45.0 °F 37.9 °F 19.0 °F 36% 29.81 in 10.0 mi NW 16.1 mph 29.9 mph N/A   Clear
2:53 PM 43.0 °F 37.2 °F 18.0 °F 37% 29.82 in 10.0 mi North 10.4 mph 19.6 mph N/A   Clear
3:53 PM 44.1 °F 39.0 °F 17.1 °F 34% 29.82 in 10.0 mi North 9.2 mph 17.3 mph N/A   Partly Cloudy
4:53 PM 43.0 °F 38.2 °F 17.1 °F 35% 29.84 in 10.0 mi North 8.1 mph - N/A   Clear
5:53 PM 43.0 °F 38.8 °F 17.1 °F 35% 29.87 in 10.0 mi North 6.9 mph - N/A   Clear
6:53 PM 41.0 °F 33.9 °F 19.0 °F 41% 29.90 in 10.0 mi North 12.7 mph 23.0 mph N/A   Clear
7:53 PM 39.9 °F 32.1 °F 21.0 °F 47% 29.91 in 10.0 mi North 13.8 mph 26.5 mph N/A   Clear
8:53 PM 37.9 °F 29.6 °F 21.9 °F 53% 29.94 in 10.0 mi NNW 13.8 mph 25.3 mph N/A   Clear
9:53 PM 37.0 °F 31.0 °F 21.9 °F 54% 29.95 in 10.0 mi NNW 8.1 mph - N/A   Clear
10:53 PM 37.0 °F 32.4 °F 21.9 °F 54% 29.95 in 10.0 mi Variable 5.8 mph - N/A   Clear
11:53 PM 35.1 °F 30.1 °F 23.0 °F 61% 29.95 in 10.0 mi NNW 5.8 mph - N/A   Clear